RSJ9671 UUDL-UNOO

Flight info

Callsign RSJ9671
Flight time 2h 38m
Altitude 37000
Route ISKOR DCT IBREN N869 BAPUN P874 DIKIN M61 SUMOM P983 ULPAS/K0824F390 P983 TINRI A305 LUKAS B236 OKETI B812 MANUG
Aircraft B738/M-SDE2E3FGHIRWXY/LB1

Departure

Time 2026-05-05 16:20
Airport Golden Ring Yaroslavl International Airport (UUDL)

Arrival

Time 2026-05-05 18:58
Airport Omsk Central Airport (UNOO)
Time Latitude Longitude Altitude Speed Heading
2026-05-05 15:54 57.56379 40.17641 312 ft 0 kts 18°
2026-05-05 16:18 57.56389 40.17647 311 ft 4 kts 18°
2026-05-05 16:18 57.56436 40.17672 312 ft 10 kts 11°
2026-05-05 16:18 57.56555 40.17550 311 ft 10 kts 265°
2026-05-05 16:19 57.56523 40.17440 311 ft 10 kts 250°
2026-05-05 16:19 57.56517 40.17420 311 ft 1 kts 244°
2026-05-05 16:19 57.56087 40.15818 309 ft 138 kts 243°
2026-05-05 16:20 57.55090 40.11985 1537 ft 160 kts 244°
2026-05-05 16:20 57.53980 40.07984 2732 ft 197 kts 244°
2026-05-05 16:21 57.52550 40.03326 3744 ft 224 kts 224°
2026-05-05 16:22 57.47966 40.03715 6191 ft 262 kts 136°
2026-05-05 16:22 57.47043 40.10274 7714 ft 279 kts 72°
2026-05-05 16:23 57.49560 40.15446 8885 ft 274 kts 27°
2026-05-05 16:23 57.51197 40.17305 9664 ft 278 kts 27°
2026-05-05 16:23 57.54501 40.21244 11102 ft 290 kts 28°
2026-05-05 16:24 57.56261 40.23400 11322 ft 317 kts 31°
2026-05-05 16:24 57.58114 40.25908 11534 ft 342 kts 33°
2026-05-05 16:24 57.62370 40.30354 12697 ft 356 kts 19°
2026-05-05 16:25 57.64661 40.32155 13536 ft 358 kts 18°
2026-05-05 16:25 57.69282 40.35917 14911 ft 369 kts 25°
2026-05-05 16:25 57.71312 40.38972 15533 ft 384 kts 47°
2026-05-05 16:26 57.73525 40.48196 16910 ft 397 kts 72°
2026-05-05 16:26 57.75064 40.58193 18163 ft 407 kts 73°
2026-05-05 16:27 57.75849 40.63311 18730 ft 411 kts 73°
2026-05-05 16:27 57.76649 40.68470 19342 ft 413 kts 73°
2026-05-05 16:27 57.77458 40.73649 19970 ft 416 kts 72°
2026-05-05 16:27 57.78278 40.78866 20530 ft 420 kts 72°
2026-05-05 16:28 57.79110 40.84141 21059 ft 424 kts 72°
2026-05-05 16:28 57.79952 40.89469 21600 ft 428 kts 72°
2026-05-05 16:28 57.80801 40.94850 22160 ft 432 kts 72°
2026-05-05 16:28 57.81653 41.00273 22697 ft 436 kts 72°
2026-05-05 16:29 57.82512 41.05750 23217 ft 440 kts 72°
2026-05-05 16:29 57.83375 41.11278 23665 ft 444 kts 72°
2026-05-05 16:29 57.84243 41.16849 24119 ft 446 kts 72°
2026-05-05 16:29 57.85111 41.22449 24591 ft 448 kts 72°
2026-05-05 16:30 57.85981 41.28077 25030 ft 451 kts 72°
2026-05-05 16:30 57.86855 41.33751 25460 ft 454 kts 72°
2026-05-05 16:30 57.87732 41.39460 25886 ft 456 kts 72°
2026-05-05 16:30 57.88611 41.45198 26312 ft 458 kts 72°
2026-05-05 16:31 57.89493 41.50975 26720 ft 461 kts 72°
2026-05-05 16:31 57.90377 41.56785 27120 ft 464 kts 72°
2026-05-05 16:31 57.91308 41.62606 27524 ft 466 kts 71°
2026-05-05 16:31 57.92290 41.68421 27916 ft 468 kts 70°
2026-05-05 16:32 57.93296 41.74253 28290 ft 470 kts 70°
2026-05-05 16:32 57.94311 41.80132 28652 ft 473 kts 70°
2026-05-05 16:32 57.95325 41.86038 29028 ft 475 kts 70°
2026-05-05 16:32 57.96333 41.91974 29395 ft 477 kts 70°
2026-05-05 16:33 57.97339 41.97949 29747 ft 479 kts 70°
2026-05-05 16:33 57.98343 42.03952 30038 ft 482 kts 70°
2026-05-05 16:33 57.99345 42.09981 30355 ft 483 kts 70°
2026-05-05 16:33 58.00332 42.15948 30671 ft 484 kts 70°
2026-05-05 16:34 58.01331 42.22008 30967 ft 485 kts 70°
2026-05-05 16:34 58.02330 42.28089 31249 ft 486 kts 70°
2026-05-05 16:34 58.03329 42.34185 31585 ft 486 kts 70°
2026-05-05 16:34 58.04321 42.40265 32008 ft 483 kts 70°
2026-05-05 16:35 58.05305 42.46318 32441 ft 481 kts 70°
2026-05-05 16:35 58.06280 42.52334 32825 ft 479 kts 70°
2026-05-05 16:35 58.07253 42.58350 33180 ft 478 kts 70°
2026-05-05 16:35 58.08221 42.64358 33556 ft 477 kts 70°
2026-05-05 16:36 58.09181 42.70339 33907 ft 475 kts 70°
2026-05-05 16:36 58.10137 42.76316 34186 ft 475 kts 70°
2026-05-05 16:36 58.11089 42.82287 34452 ft 474 kts 70°
2026-05-05 16:36 58.12037 42.88255 34720 ft 474 kts 71°
2026-05-05 16:37 58.12982 42.94223 34978 ft 473 kts 71°
2026-05-05 16:37 58.13923 43.00186 35246 ft 473 kts 71°
2026-05-05 16:37 58.14859 43.06138 35512 ft 472 kts 71°
2026-05-05 16:37 58.15791 43.12090 35763 ft 471 kts 71°
2026-05-05 16:38 58.16721 43.18044 35983 ft 472 kts 71°
2026-05-05 16:38 58.17649 43.24007 36178 ft 472 kts 71°
2026-05-05 16:38 58.18575 43.29980 36386 ft 473 kts 71°
2026-05-05 16:38 58.19497 43.35952 36636 ft 472 kts 71°
2026-05-05 16:39 58.20416 43.41918 36789 ft 473 kts 71°
2026-05-05 16:39 58.21338 43.47929 36770 ft 475 kts 71°
2026-05-05 16:39 58.23156 43.59848 36758 ft 471 kts 71°
2026-05-05 16:40 58.24957 43.71747 36772 ft 467 kts 71°
2026-05-05 16:40 58.26736 43.83578 36766 ft 465 kts 72°
2026-05-05 16:41 58.28496 43.95359 36777 ft 463 kts 72°
2026-05-05 16:41 58.30243 44.07143 36769 ft 463 kts 72°
2026-05-05 16:42 58.31983 44.18959 36776 ft 465 kts 72°
2026-05-05 16:42 58.33718 44.30830 36774 ft 467 kts 72°
2026-05-05 16:43 58.35451 44.42776 36772 ft 469 kts 72°
2026-05-05 16:43 58.37182 44.54798 36768 ft 471 kts 72°
2026-05-05 16:44 58.38908 44.66878 36767 ft 473 kts 72°
2026-05-05 16:44 58.40627 44.79004 36765 ft 474 kts 72°
2026-05-05 16:45 58.42338 44.91162 36761 ft 475 kts 72°
2026-05-05 16:45 58.44037 45.03326 36761 ft 474 kts 72°
2026-05-05 16:46 58.45720 45.15474 36756 ft 473 kts 72°
2026-05-05 16:46 58.47389 45.27612 36755 ft 472 kts 72°
2026-05-05 16:47 58.49030 45.39643 36760 ft 470 kts 72°
2026-05-05 16:47 58.50666 45.51726 36763 ft 469 kts 72°
2026-05-05 16:48 58.52287 45.63787 36755 ft 468 kts 72°
2026-05-05 16:48 58.53837 45.75864 36752 ft 468 kts 77°
2026-05-05 16:49 58.54304 45.88325 36759 ft 471 kts 87°
2026-05-05 16:49 58.54167 46.00874 36761 ft 472 kts 90°
2026-05-05 16:50 58.53852 46.13423 36755 ft 472 kts 90°
2026-05-05 16:50 58.53548 46.26000 36755 ft 473 kts 90°
2026-05-05 16:51 58.53272 46.38594 36747 ft 474 kts 90°
2026-05-05 16:51 58.52999 46.51208 36760 ft 475 kts 90°
2026-05-05 16:52 58.52715 46.63857 36759 ft 476 kts 90°
2026-05-05 16:52 58.52417 46.76528 36757 ft 477 kts 90°
2026-05-05 16:53 58.52107 46.89133 36749 ft 478 kts 90°
2026-05-05 16:53 58.51781 47.01846 36750 ft 478 kts 90°
2026-05-05 16:54 58.51442 47.14555 36744 ft 478 kts 90°
2026-05-05 16:54 58.51092 47.27241 36747 ft 477 kts 90°
2026-05-05 16:55 58.50729 47.39913 36741 ft 477 kts 90°
2026-05-05 16:55 58.50355 47.52552 36748 ft 475 kts 91°
2026-05-05 16:56 58.49970 47.65151 36748 ft 474 kts 91°
2026-05-05 16:56 58.49574 47.77712 36739 ft 473 kts 91°
2026-05-05 16:57 58.49166 47.90241 36748 ft 472 kts 91°
2026-05-05 16:57 58.48747 48.02745 36747 ft 471 kts 91°
2026-05-05 16:58 58.48317 48.15220 36743 ft 470 kts 91°
2026-05-05 16:58 58.47950 48.25566 36748 ft 470 kts 91°
2026-05-05 16:59 58.47499 48.38013 36739 ft 469 kts 91°
2026-05-05 16:59 58.47035 48.50456 36749 ft 470 kts 92°
2026-05-05 17:00 58.46559 48.62909 36742 ft 470 kts 92°
2026-05-05 17:00 58.46071 48.75365 36746 ft 471 kts 92°
2026-05-05 17:01 58.45569 48.87846 36741 ft 472 kts 92°
2026-05-05 17:01 58.45054 49.00343 36744 ft 473 kts 92°
2026-05-05 17:02 58.44526 49.12871 36742 ft 474 kts 92°
2026-05-05 17:02 58.43989 49.25320 36742 ft 474 kts 93°
2026-05-05 17:03 58.43434 49.37894 36737 ft 475 kts 93°
2026-05-05 17:03 58.42866 49.50457 36741 ft 475 kts 93°
2026-05-05 17:04 58.42286 49.63031 36740 ft 476 kts 93°
2026-05-05 17:04 58.41694 49.75604 36742 ft 476 kts 94°
2026-05-05 17:05 58.41089 49.88166 36746 ft 476 kts 94°
2026-05-05 17:05 58.40472 50.00726 36748 ft 475 kts 94°
2026-05-05 17:06 58.39843 50.13275 36746 ft 475 kts 94°
2026-05-05 17:06 58.39203 50.25809 36748 ft 475 kts 94°
2026-05-05 17:07 58.38551 50.38323 36747 ft 474 kts 94°
2026-05-05 17:07 58.37887 50.50816 36754 ft 474 kts 95°
2026-05-05 17:08 58.37212 50.63306 36755 ft 474 kts 95°
2026-05-05 17:08 58.36524 50.75784 36760 ft 473 kts 95°
2026-05-05 17:09 58.35825 50.88254 36761 ft 473 kts 95°
2026-05-05 17:09 58.35114 51.00706 36763 ft 473 kts 95°
2026-05-05 17:10 58.34391 51.13162 36766 ft 473 kts 95°
2026-05-05 17:10 58.33656 51.25610 36771 ft 473 kts 96°
2026-05-05 17:11 58.32908 51.38058 36771 ft 474 kts 96°
2026-05-05 17:11 58.32153 51.50425 36777 ft 474 kts 96°
2026-05-05 17:12 58.31381 51.62875 36778 ft 474 kts 96°
2026-05-05 17:12 58.30596 51.75329 36781 ft 474 kts 96°
2026-05-05 17:13 58.29798 51.87779 36782 ft 474 kts 96°
2026-05-05 17:13 58.28989 52.00221 36784 ft 474 kts 97°
2026-05-05 17:14 58.28167 52.12668 36788 ft 474 kts 97°
2026-05-05 17:14 58.27333 52.25100 36788 ft 474 kts 97°
2026-05-05 17:15 58.26487 52.37531 36793 ft 474 kts 97°
2026-05-05 17:15 58.25630 52.49950 36785 ft 474 kts 97°
2026-05-05 17:16 58.24761 52.62355 36798 ft 474 kts 97°
2026-05-05 17:16 58.23879 52.74759 36792 ft 474 kts 97°
2026-05-05 17:17 58.22987 52.87139 36800 ft 474 kts 98°
2026-05-05 17:17 58.22082 52.99519 36796 ft 473 kts 98°
2026-05-05 17:18 58.21166 53.11886 36791 ft 473 kts 98°
2026-05-05 17:18 58.20239 53.24236 36796 ft 473 kts 98°
2026-05-05 17:19 58.19300 53.36575 36797 ft 473 kts 98°
2026-05-05 17:19 58.18351 53.48893 36808 ft 472 kts 98°
2026-05-05 17:20 58.17395 53.61127 36792 ft 472 kts 98°
2026-05-05 17:20 58.16422 53.73428 36805 ft 472 kts 99°
2026-05-05 17:21 58.15439 53.85706 36802 ft 472 kts 99°
2026-05-05 17:22 58.13942 54.04112 36808 ft 472 kts 99°
2026-05-05 17:22 58.12929 54.16372 36805 ft 472 kts 99°
2026-05-05 17:23 58.11904 54.28627 36806 ft 471 kts 99°
2026-05-05 17:23 58.10868 54.40872 36811 ft 471 kts 99°
2026-05-05 17:24 58.09821 54.53103 36810 ft 471 kts 99°
2026-05-05 17:24 58.08761 54.65331 36807 ft 472 kts 100°
2026-05-05 17:25 58.07689 54.77566 36809 ft 472 kts 100°
2026-05-05 17:25 58.06606 54.89776 36812 ft 472 kts 100°
2026-05-05 17:26 58.05512 55.01987 36817 ft 471 kts 100°
2026-05-05 17:26 58.04405 55.14190 36811 ft 471 kts 100°
2026-05-05 17:27 58.03288 55.26377 36816 ft 471 kts 101°
2026-05-05 17:27 58.02159 55.38554 36813 ft 471 kts 101°
2026-05-05 17:28 58.01019 55.50716 36822 ft 471 kts 101°
2026-05-05 17:28 57.99876 55.62790 36824 ft 471 kts 101°
2026-05-05 17:29 57.98715 55.74929 36831 ft 470 kts 101°
2026-05-05 17:29 57.97544 55.87059 36827 ft 470 kts 101°
2026-05-05 17:30 57.96508 55.99228 36829 ft 471 kts 99°
2026-05-05 17:30 57.95599 56.11427 36828 ft 470 kts 98°
2026-05-05 17:31 57.94670 56.23621 36832 ft 470 kts 99°
2026-05-05 17:31 57.93706 56.35799 36827 ft 470 kts 99°
2026-05-05 17:32 57.92719 56.47971 36830 ft 470 kts 99°
2026-05-05 17:32 57.91721 56.60128 36829 ft 470 kts 99°
2026-05-05 17:33 57.90711 56.72280 36837 ft 470 kts 99°
2026-05-05 17:33 57.89690 56.84436 36837 ft 470 kts 99°
2026-05-05 17:34 57.88659 56.96575 36846 ft 470 kts 99°
2026-05-05 17:34 57.87615 57.08709 36844 ft 470 kts 100°
2026-05-05 17:35 57.86560 57.20833 36847 ft 470 kts 100°
2026-05-05 17:35 57.85493 57.32958 36847 ft 470 kts 100°
2026-05-05 17:36 57.84414 57.45077 36858 ft 470 kts 100°
2026-05-05 17:36 57.83333 57.57097 36853 ft 471 kts 100°
2026-05-05 17:37 57.82358 57.69314 37034 ft 476 kts 96°
2026-05-05 17:37 57.82144 57.73485 37207 ft 475 kts 95°
2026-05-05 17:37 57.81800 57.81644 37563 ft 473 kts 95°
2026-05-05 17:37 57.81557 57.87794 37831 ft 472 kts 95°
2026-05-05 17:38 57.81305 57.93919 38013 ft 470 kts 95°
2026-05-05 17:38 57.81038 58.00026 38294 ft 469 kts 95°
2026-05-05 17:38 57.80757 58.06099 38552 ft 467 kts 95°
2026-05-05 17:38 57.80466 58.12153 38774 ft 465 kts 96°
2026-05-05 17:39 57.80168 58.18185 38860 ft 466 kts 96°
2026-05-05 17:39 57.79553 58.30345 38872 ft 472 kts 96°
2026-05-05 17:40 57.78918 58.42661 38878 ft 476 kts 96°
2026-05-05 17:40 57.78268 58.55058 38878 ft 480 kts 96°
2026-05-05 17:41 57.77604 58.67511 38861 ft 478 kts 96°
2026-05-05 17:41 57.76936 58.79791 38861 ft 469 kts 96°
2026-05-05 17:42 57.76265 58.91927 38873 ft 468 kts 96°
2026-05-05 17:42 57.75582 59.04062 38876 ft 468 kts 96°
2026-05-05 17:43 57.74888 59.16180 38878 ft 468 kts 96°
2026-05-05 17:43 57.74181 59.28305 38886 ft 469 kts 96°
2026-05-05 17:44 57.73466 59.40378 38883 ft 470 kts 97°
2026-05-05 17:44 57.72733 59.52554 38886 ft 471 kts 97°
2026-05-05 17:45 57.71987 59.64752 38891 ft 473 kts 97°
2026-05-05 17:45 57.71227 59.76968 38886 ft 474 kts 97°
2026-05-05 17:46 57.70585 59.87148 38885 ft 474 kts 97°
2026-05-05 17:46 57.69667 60.01474 38881 ft 475 kts 97°
2026-05-05 17:47 57.68869 60.13725 38878 ft 475 kts 97°
2026-05-05 17:47 57.68196 60.23906 38877 ft 475 kts 97°
2026-05-05 17:48 57.67377 60.36140 38878 ft 474 kts 97°
2026-05-05 17:48 57.66547 60.48349 38879 ft 473 kts 97°
2026-05-05 17:49 57.65707 60.60526 38880 ft 472 kts 97°
2026-05-05 17:49 57.64857 60.72673 38880 ft 472 kts 98°
2026-05-05 17:50 57.63997 60.84805 38879 ft 471 kts 98°
2026-05-05 17:50 57.63126 60.96903 38876 ft 470 kts 98°
2026-05-05 17:51 57.62245 61.08986 38884 ft 470 kts 98°
2026-05-05 17:51 57.61353 61.21054 38880 ft 469 kts 98°
2026-05-05 17:52 57.60451 61.33104 38885 ft 469 kts 98°
2026-05-05 17:52 57.59536 61.45153 38886 ft 469 kts 98°
2026-05-05 17:53 57.58610 61.57200 38882 ft 469 kts 98°
2026-05-05 17:53 57.57673 61.69237 38885 ft 470 kts 98°
2026-05-05 17:54 57.56722 61.81290 38886 ft 470 kts 98°
2026-05-05 17:54 57.55768 61.93240 38892 ft 470 kts 99°
2026-05-05 17:55 57.54794 62.05287 38893 ft 470 kts 99°
2026-05-05 17:55 57.53809 62.17316 38896 ft 470 kts 99°
2026-05-05 17:56 57.52813 62.29344 38897 ft 470 kts 99°
2026-05-05 17:56 57.51804 62.41374 38897 ft 470 kts 99°
2026-05-05 17:57 57.50785 62.53391 38894 ft 470 kts 99°
2026-05-05 17:57 57.49754 62.65406 38896 ft 470 kts 99°
2026-05-05 17:58 57.48712 62.77405 38903 ft 470 kts 99°
2026-05-05 17:58 57.47659 62.89394 38901 ft 470 kts 99°
2026-05-05 17:59 57.46595 63.01375 38902 ft 470 kts 100°
2026-05-05 17:59 57.45520 63.13346 38900 ft 470 kts 100°
2026-05-05 18:00 57.44434 63.25302 38905 ft 469 kts 100°
2026-05-05 18:00 57.43338 63.37244 38902 ft 469 kts 100°
2026-05-05 18:01 57.42240 63.49079 38902 ft 469 kts 100°
2026-05-05 18:01 57.41114 63.61092 38913 ft 469 kts 100°
2026-05-05 18:02 57.39994 63.72929 38910 ft 469 kts 101°
2026-05-05 18:02 57.38594 63.84728 38908 ft 468 kts 105°
2026-05-05 18:03 57.36878 63.96375 38911 ft 469 kts 106°
2026-05-05 18:03 57.35159 64.08016 38915 ft 469 kts 105°
2026-05-05 18:04 57.33274 64.19563 38911 ft 468 kts 111°
2026-05-05 18:04 57.30953 64.30820 38914 ft 468 kts 112°
2026-05-05 18:05 57.28577 64.42033 38913 ft 469 kts 112°
2026-05-05 18:05 57.26230 64.53280 38913 ft 469 kts 112°
2026-05-05 18:06 57.23904 64.64531 38918 ft 469 kts 111°
2026-05-05 18:06 57.21572 64.75792 38924 ft 470 kts 112°
2026-05-05 18:07 57.19227 64.87055 38927 ft 470 kts 112°
2026-05-05 18:07 57.16870 64.98303 38930 ft 471 kts 112°
2026-05-05 18:08 57.14500 65.09544 38941 ft 471 kts 112°
2026-05-05 18:08 57.12113 65.20806 38942 ft 472 kts 112°
2026-05-05 18:09 57.09716 65.32053 38937 ft 472 kts 112°
2026-05-05 18:09 57.07306 65.43296 38942 ft 473 kts 112°
2026-05-05 18:10 57.04884 65.54538 38936 ft 474 kts 112°
2026-05-05 18:10 57.02446 65.65789 38930 ft 474 kts 112°
2026-05-05 18:11 56.99997 65.77030 38935 ft 475 kts 113°
2026-05-05 18:11 56.97536 65.88269 38934 ft 475 kts 113°
2026-05-05 18:12 56.95061 65.99504 38947 ft 476 kts 113°
2026-05-05 18:12 56.92574 66.10737 38942 ft 476 kts 113°
2026-05-05 18:13 56.90078 66.21953 38945 ft 476 kts 113°
2026-05-05 18:13 56.87586 66.33090 38948 ft 476 kts 114°
2026-05-05 18:14 56.85065 66.44295 38945 ft 476 kts 114°
2026-05-05 18:14 56.82537 66.55472 38950 ft 476 kts 114°
2026-05-05 18:15 56.79998 66.66635 38948 ft 476 kts 114°
2026-05-05 18:15 56.77451 66.77778 38950 ft 476 kts 114°
2026-05-05 18:16 56.74895 66.88901 38955 ft 476 kts 114°
2026-05-05 18:16 56.72329 67.00012 38963 ft 476 kts 114°
2026-05-05 18:17 56.69755 67.11099 38963 ft 475 kts 114°
2026-05-05 18:17 56.67171 67.22167 38946 ft 475 kts 114°
2026-05-05 18:18 56.64579 67.33215 38961 ft 475 kts 114°
2026-05-05 18:18 56.61977 67.44251 38958 ft 475 kts 114°
2026-05-05 18:19 56.59365 67.55271 38958 ft 475 kts 115°
2026-05-05 18:19 56.56744 67.66274 38955 ft 475 kts 115°
2026-05-05 18:20 56.54112 67.77267 38955 ft 475 kts 115°
2026-05-05 18:20 56.51469 67.88249 38952 ft 476 kts 115°
2026-05-05 18:21 56.48815 67.99221 38947 ft 476 kts 115°
2026-05-05 18:21 56.46149 68.10184 38945 ft 476 kts 115°
2026-05-05 18:22 56.43475 68.21129 38941 ft 476 kts 115°
2026-05-05 18:22 56.40789 68.32068 38939 ft 476 kts 115°
2026-05-05 18:23 56.38111 68.42919 38934 ft 476 kts 115°
2026-05-05 18:23 56.35405 68.53833 38933 ft 477 kts 116°
2026-05-05 18:24 56.32688 68.64732 38925 ft 477 kts 116°
2026-05-05 18:24 56.29961 68.75621 38927 ft 477 kts 116°
2026-05-05 18:25 56.27223 68.86500 38918 ft 477 kts 116°
2026-05-05 18:25 56.24477 68.97356 38916 ft 477 kts 116°
2026-05-05 18:26 56.21723 69.08195 38917 ft 477 kts 116°
2026-05-05 18:26 56.18958 69.19019 38909 ft 477 kts 116°
2026-05-05 18:27 56.16182 69.29838 38900 ft 477 kts 116°
2026-05-05 18:27 56.13397 69.40639 38894 ft 477 kts 116°
2026-05-05 18:28 56.09201 69.56823 38889 ft 477 kts 117°
2026-05-05 18:28 56.07780 69.62238 38406 ft 484 kts 117°
2026-05-05 18:28 56.06319 69.67571 37807 ft 482 kts 118°
2026-05-05 18:29 56.04794 69.72994 37203 ft 481 kts 119°
2026-05-05 18:29 56.03303 69.78240 36620 ft 479 kts 120°
2026-05-05 18:29 56.01792 69.83549 36039 ft 479 kts 120°
2026-05-05 18:29 56.00287 69.88845 35545 ft 476 kts 120°
2026-05-05 18:30 55.98796 69.94100 35114 ft 472 kts 120°
2026-05-05 18:30 55.97318 69.99313 34677 ft 469 kts 121°
2026-05-05 18:30 55.95849 70.04490 34242 ft 466 kts 121°
2026-05-05 18:30 55.94390 70.09627 33797 ft 463 kts 121°
2026-05-05 18:31 55.92934 70.14738 33300 ft 460 kts 122°
2026-05-05 18:31 55.91487 70.19804 32848 ft 457 kts 122°
2026-05-05 18:31 55.90050 70.24829 32412 ft 453 kts 122°
2026-05-05 18:31 55.88621 70.29813 31993 ft 450 kts 122°
2026-05-05 18:32 55.87201 70.34755 31576 ft 446 kts 123°
2026-05-05 18:32 55.85789 70.39656 31166 ft 443 kts 123°
2026-05-05 18:32 55.84385 70.44520 30771 ft 440 kts 123°
2026-05-05 18:32 55.82988 70.49349 30366 ft 438 kts 124°
2026-05-05 18:33 55.81597 70.54145 29966 ft 435 kts 124°
2026-05-05 18:33 55.80214 70.58907 29503 ft 432 kts 124°
2026-05-05 18:33 55.78838 70.63635 29059 ft 429 kts 124°
2026-05-05 18:33 55.77474 70.68314 28656 ft 424 kts 124°
2026-05-05 18:34 55.76121 70.72944 28239 ft 421 kts 124°
2026-05-05 18:34 55.74777 70.77534 27831 ft 418 kts 125°
2026-05-05 18:34 55.73889 70.80561 27557 ft 416 kts 125°
2026-05-05 18:34 55.72556 70.85096 27154 ft 413 kts 125°
2026-05-05 18:35 55.70795 70.91073 26622 ft 413 kts 125°
2026-05-05 18:35 55.69463 70.95581 26235 ft 414 kts 125°
2026-05-05 18:35 55.68558 70.98640 25970 ft 415 kts 125°
2026-05-05 18:35 55.66787 71.04622 25436 ft 413 kts 126°
2026-05-05 18:36 55.65886 71.07663 25168 ft 411 kts 126°
2026-05-05 18:36 55.64557 71.12142 24770 ft 410 kts 126°
2026-05-05 18:36 55.63234 71.16592 24380 ft 408 kts 126°
2026-05-05 18:36 55.61910 71.21031 23994 ft 407 kts 126°
2026-05-05 18:37 55.60736 71.25555 23572 ft 412 kts 119°
2026-05-05 18:37 55.59718 71.30286 23127 ft 412 kts 117°
2026-05-05 18:37 55.58754 71.35042 22686 ft 409 kts 117°
2026-05-05 18:37 55.57810 71.39759 22278 ft 406 kts 117°
2026-05-05 18:38 55.56868 71.44427 21887 ft 401 kts 117°
2026-05-05 18:38 55.55924 71.49047 21501 ft 398 kts 117°
2026-05-05 18:38 55.54978 71.53613 21116 ft 394 kts 117°
2026-05-05 18:38 55.54032 71.58140 20737 ft 391 kts 117°
2026-05-05 18:39 55.53090 71.62617 20365 ft 388 kts 117°
2026-05-05 18:39 55.52153 71.67053 19998 ft 385 kts 117°
2026-05-05 18:39 55.51219 71.71458 19629 ft 382 kts 117°
2026-05-05 18:39 55.50290 71.75830 19265 ft 379 kts 117°
2026-05-05 18:40 55.49366 71.80167 18901 ft 377 kts 117°
2026-05-05 18:40 55.48447 71.84476 18533 ft 374 kts 117°
2026-05-05 18:40 55.47532 71.88754 18174 ft 372 kts 117°
2026-05-05 18:40 55.46621 71.93008 17762 ft 370 kts 117°
2026-05-05 18:41 55.45714 71.97233 17367 ft 367 kts 117°
2026-05-05 18:41 55.44814 72.01423 16995 ft 364 kts 117°
2026-05-05 18:41 55.43919 72.05578 16637 ft 361 kts 116°
2026-05-05 18:41 55.43031 72.09691 16275 ft 358 kts 116°
2026-05-05 18:42 55.42147 72.13776 15920 ft 355 kts 116°
2026-05-05 18:42 55.41271 72.17820 15574 ft 352 kts 116°
2026-05-05 18:42 55.40398 72.21839 15228 ft 350 kts 116°
2026-05-05 18:42 55.39544 72.25762 14890 ft 347 kts 116°
2026-05-05 18:43 55.38681 72.29717 14549 ft 345 kts 116°
2026-05-05 18:43 55.37813 72.33694 14205 ft 343 kts 116°
2026-05-05 18:43 55.36969 72.37546 13866 ft 341 kts 116°
2026-05-05 18:43 55.36120 72.41422 13521 ft 339 kts 116°
2026-05-05 18:44 55.35273 72.45276 13141 ft 337 kts 116°
2026-05-05 18:44 55.34430 72.49106 12787 ft 335 kts 116°
2026-05-05 18:44 55.33594 72.52904 12446 ft 332 kts 116°
2026-05-05 18:44 55.32763 72.56666 12112 ft 329 kts 116°
2026-05-05 18:45 55.31938 72.60397 11783 ft 327 kts 116°
2026-05-05 18:45 55.31116 72.64105 11453 ft 325 kts 116°
2026-05-05 18:45 55.30299 72.67786 11123 ft 323 kts 116°
2026-05-05 18:45 55.29486 72.71447 10796 ft 321 kts 116°
2026-05-05 18:46 55.28675 72.75085 10475 ft 319 kts 116°
2026-05-05 18:46 55.27867 72.78705 10150 ft 318 kts 116°
2026-05-05 18:46 55.27082 72.82307 9939 ft 312 kts 115°
2026-05-05 18:46 55.26352 72.85832 9808 ft 304 kts 115°
2026-05-05 18:47 55.25636 72.89319 9485 ft 304 kts 115°
2026-05-05 18:47 55.24914 72.92820 9175 ft 308 kts 115°
2026-05-05 18:47 55.24189 72.96325 8862 ft 311 kts 115°
2026-05-05 18:47 55.23449 72.99890 8537 ft 311 kts 115°
2026-05-05 18:48 55.22711 73.03444 8209 ft 310 kts 115°
2026-05-05 18:48 55.21976 73.06975 7886 ft 308 kts 115°
2026-05-05 18:48 55.21242 73.10489 7555 ft 306 kts 115°
2026-05-05 18:48 55.20512 73.13976 7250 ft 304 kts 115°
2026-05-05 18:49 55.19784 73.17448 6939 ft 303 kts 115°
2026-05-05 18:49 55.19061 73.20892 6636 ft 301 kts 116°
2026-05-05 18:49 55.18339 73.24323 6333 ft 300 kts 116°
2026-05-05 18:49 55.17619 73.27739 6015 ft 298 kts 116°
2026-05-05 18:50 55.16905 73.31122 5770 ft 294 kts 115°
2026-05-05 18:50 55.16201 73.34446 5496 ft 291 kts 115°
2026-05-05 18:50 55.15500 73.37753 5200 ft 290 kts 115°
2026-05-05 18:50 55.14800 73.41053 4889 ft 289 kts 114°
2026-05-05 18:51 55.14102 73.44349 4576 ft 289 kts 114°
2026-05-05 18:51 55.13406 73.47633 4261 ft 287 kts 114°
2026-05-05 18:51 55.12713 73.50896 3959 ft 286 kts 114°
2026-05-05 18:51 55.12022 73.54139 3658 ft 284 kts 114°
2026-05-05 18:52 55.11334 73.57356 3384 ft 280 kts 115°
2026-05-05 18:52 55.10343 73.60105 3244 ft 260 kts 142°
2026-05-05 18:52 55.08869 73.61641 3183 ft 240 kts 167°
2026-05-05 18:52 55.07262 73.62133 3096 ft 231 kts 184°
2026-05-05 18:53 55.05694 73.61724 3009 ft 227 kts 199°
2026-05-05 18:53 55.04209 73.60957 2882 ft 216 kts 201°
2026-05-05 18:53 55.02830 73.60206 2772 ft 199 kts 202°
2026-05-05 18:53 55.01558 73.59447 2577 ft 187 kts 212°
2026-05-05 18:54 55.00766 73.57829 2498 ft 175 kts 247°
2026-05-05 18:54 55.00302 73.55863 2478 ft 176 kts 250°
2026-05-05 18:54 54.99888 73.53881 2457 ft 171 kts 251°
2026-05-05 18:54 54.99549 73.51958 2452 ft 166 kts 255°
2026-05-05 18:55 54.99272 73.50043 2288 ft 158 kts 256°
2026-05-05 18:55 54.99030 73.48265 2109 ft 142 kts 256°
2026-05-05 18:55 54.98812 73.46653 1903 ft 132 kts 257°
2026-05-05 18:55 54.98604 73.45110 1721 ft 131 kts 256°
2026-05-05 18:56 54.98396 73.43581 1552 ft 129 kts 256°
2026-05-05 18:56 54.98189 73.42050 1387 ft 131 kts 256°
2026-05-05 18:56 54.97981 73.40494 1179 ft 133 kts 256°
2026-05-05 18:56 54.97767 73.38912 1005 ft 136 kts 256°
2026-05-05 18:57 54.97551 73.37278 841 ft 141 kts 256°
2026-05-05 18:57 54.97324 73.35605 635 ft 140 kts 255°
2026-05-05 18:57 54.97106 73.33993 458 ft 135 kts 256°
2026-05-05 18:57 54.96896 73.32388 311 ft 136 kts 256°
2026-05-05 18:58 54.96708 73.30986 307 ft 98 kts 257°
2026-05-05 18:58 54.96589 73.30094 312 ft 54 kts 257°
2026-05-05 18:58 54.96520 73.29601 319 ft 38 kts 256°
2026-05-05 18:58 54.96485 73.29340 319 ft 16 kts 257°
2026-05-05 18:59 54.96456 73.29177 318 ft 6 kts 228°
2026-05-05 18:59 54.96408 73.29163 318 ft 9 kts 176°
2026-05-05 18:59 54.96345 73.29181 316 ft 10 kts 166°
2026-05-05 18:59 54.96280 73.29208 315 ft 10 kts 166°
2026-05-05 19:00 54.96216 73.29235 315 ft 10 kts 167°
2026-05-05 19:00 54.96146 73.29263 314 ft 11 kts 167°
2026-05-05 19:00 54.96083 73.29325 313 ft 11 kts 109°
2026-05-05 19:00 54.96094 73.29466 312 ft 13 kts 77°
2026-05-05 19:01 54.96119 73.29654 308 ft 20 kts 77°
2026-05-05 19:01 54.96151 73.29895 306 ft 19 kts 77°
2026-05-05 19:01 54.96180 73.30115 305 ft 18 kts 77°
2026-05-05 19:01 54.96209 73.30328 304 ft 18 kts 77°
2026-05-05 19:02 54.96236 73.30536 305 ft 18 kts 77°
2026-05-05 19:02 54.96266 73.30760 302 ft 20 kts 77°
2026-05-05 19:02 54.96298 73.30997 302 ft 19 kts 77°
2026-05-05 19:02 54.96328 73.31221 299 ft 19 kts 77°
2026-05-05 19:03 54.96356 73.31432 297 ft 17 kts 77°
2026-05-05 19:03 54.96372 73.31600 300 ft 12 kts 105°
2026-05-05 19:03 54.96313 73.31714 298 ft 14 kts 137°
2026-05-05 19:03 54.96228 73.31854 299 ft 18 kts 136°
2026-05-05 19:04 54.96162 73.31894 298 ft 11 kts 217°
2026-05-05 19:04 54.96110 73.31805 297 ft 11 kts 226°
2026-05-05 19:04 54.96050 73.31698 299 ft 15 kts 226°
2026-05-05 19:04 54.96027 73.31615 297 ft 5 kts 279°
2026-05-05 19:05 54.96033 73.31543 298 ft 5 kts 262°
2026-05-05 19:05 54.96010 73.31504 299 ft 5 kts 198°
2026-05-05 19:05 54.96002 73.31506 299 ft 1 kts 167°
2026-05-05 19:05 54.95995 73.31508 297 ft 0 kts 166°